Back to catalog

STARLINK-31724

AliveCommunicationsVLEO
NORAD 59554·PAYLOAD·🇺🇸 United States

Launched Apr 18, 2024 from Cape Canaveral Space Force Station

Loading…

Next Passes (next 24 hours)

TLE

FreshSource: CelesTrak SupGP

Epoch: Sep 14, 2026, 14:09 UTC

1 59554C 24074W   26257.59006944  .00017864  00000+0  64725-3 0  2573
2 59554  43.0013 320.6848 0001483 273.3033 104.1390 15.27558845    18

Track STARLINK-31724 in real time with AllMySat

Download on the App Store